This is the latest recevied weather packets stored in our database for station/object KE8WAY. If no packets are shown the sender has not sent any weather packets the latest 10 day(s).
| Time | Temp. | Humidity | Pressure | Rain* | Wind** | Luminosity | Snow |
|---|---|---|---|---|---|---|---|
| 1777433809 | 11.11° C | 90% | 1012.2 hPa | 0 mm | - | 0 W/m² | - |
| 1777433505 | 11.11° C | 89% | 1012.4 hPa | 0 mm | - | 0 W/m² | - |
| 1777433200 | 11.11° C | 90% | 1012.4 hPa | 0 mm | - | 0 W/m² | - |
| 1777432897 | 11.11° C | 89% | 1012.5 hPa | 0 mm | - | 0 W/m² | - |
| 1777432597 | 11.67° C | 89% | 1012.6 hPa | 0 mm | - | 0 W/m² | - |
| 1777432294 | 11.67° C | 88% | 1012.5 hPa | 0 mm | - | 0 W/m² | - |
| 1777431993 | 11.67° C | 89% | 1012.6 hPa | 0 mm | - | 0 W/m² | - |
| 1777431690 | 11.67° C | 89% | 1012.8 hPa | 0 mm | - | 0 W/m² | - |
| 1777431385 | 11.11° C | 89% | 1012.7 hPa | 0 mm | - | 0 W/m² | - |
| 1777431081 | 11.11° C | 88% | 1012.9 hPa | 0 mm | - | 0 W/m² | - |
| 1777430777 | 11.11° C | 88% | 1012.9 hPa | 0 mm | - | 0 W/m² | - |
| 1777430474 | 11.67° C | 87% | 1013 hPa | 0 mm | - | 0 W/m² | - |
| 1777430169 | 11.11° C | 88% | 1013 hPa | 0 mm | - | 0 W/m² | - |
| 1777429865 | 11.67° C | 86% | 1012.9 hPa | 0 mm | - | 0 W/m² | - |
| 1777429561 | 11.67° C | 85% | 1013.1 hPa | 0 mm | - | 0 W/m² | - |
| 1777429258 | 11.67° C | 84% | 1013.1 hPa | 0 mm | - | 0 W/m² | - |
| 1777428953 | 11.67° C | 85% | 1013 hPa | 0 mm | - | 0 W/m² | - |
| 1777428649 | 12.22° C | 83% | 1013 hPa | 0 mm | - | 0 W/m² | - |
| 1777428345 | 12.22° C | 83% | 1012.9 hPa | 0 mm | - | 0 W/m² | - |
| 1777428040 | 11.67° C | 83% | 1013.2 hPa | 0 mm | - | 0 W/m² | - |
| 1777427737 | 11.67° C | 84% | 1013.2 hPa | 0 mm | - | 0 W/m² | - |
| 1777427434 | 11.67° C | 82% | 1013.2 hPa | 0 mm | - | 0 W/m² | - |
| 1777427129 | 12.22° C | 80% | 1013 hPa | 0 mm | - | 0 W/m² | - |
| 1777426828 | 12.78° C | 79% | 1012.8 hPa | 0 mm | - | 0 W/m² | - |
| 1777426525 | 12.78° C | 78% | 1012.9 hPa | 0 mm | - | 0 W/m² | - |
* Rain latest hour (hover to see other rain measurements)
** Current wind speed in m/s (hover to see current wind gust speed)